When you browse on this site, cookies collect data to enhance your experience and personalize the content and advertising you see.
Visit our Privacy Policy to learn more. By continuing to use the site, you agree to this use of cookies and data.
  • In Austria
  • List of Countries
  • For 7 days
  • Water Temperature
  • Weather Map
  • News
  • Weather Widgets
  • user-avatar
    Login

    Hourly Weather San Francisco

    Today, 23 September, Monday

    Time Temperature Precipitation Wind Pressure Humidity
    00:00 +18°C° 0.3 mm 1 mps 638 mmHg 89%
    01:00 +18°C° 0 mm 1 mps 638 mmHg 89%
    02:00 +18°C° 0.5 mm 1 mps 638 mmHg 89%
    03:00 +18°C° 0.5 mm 1 mps 638 mmHg 89%
    04:00 +18°C° 0.5 mm 1 mps 638 mmHg 89%
    05:00 +18°C° 0.2 mm 1 mps 638 mmHg 87%
    06:00 +19°C° 0.2 mm 1 mps 639 mmHg 85%
    07:00 +19°C° 0.2 mm 1 mps 639 mmHg 84%
    08:00 +21°C° 0.1 mm 1 mps 640 mmHg 77%
    09:00 +23°C° 0.1 mm 1 mps 640 mmHg 71%
    10:00 +25°C° 0.1 mm 1 mps 641 mmHg 64%
    11:00 +26°C° 0.5 mm 1 mps 640 mmHg 66%
    12:00 +26°C° 0.5 mm 2 mps 639 mmHg 68%
    13:00 +26°C° 0.5 mm 2 mps 638 mmHg 70%
    14:00 +26°C° 0.9 mm 2 mps 638 mmHg 71%
    15:00 +25°C° 0.9 mm 1 mps 637 mmHg 71%
    16:00 +25°C° 0.9 mm 1 mps 637 mmHg 72%
    17:00 +24°C° 0.8 mm 1 mps 637 mmHg 76%
    18:00 +22°C° 0.8 mm 1 mps 637 mmHg 80%
    19:00 +21°C° 0.8 mm 1 mps 637 mmHg 84%
    20:00 +21°C° 0.4 mm 1 mps 637 mmHg 84%
    21:00 +21°C° 0.4 mm 1 mps 638 mmHg 84%
    22:00 +20°C° 0.4 mm 1 mps 638 mmHg 84%
    23:00 +20°C° 0.2 mm 1 mps 638 mmHg 84%

    Tomorrow, 24 September, Tuesday

    Time Temperature Precipitation Wind Pressure Humidity
    00:00 +20°C° 0.2 mm 1 mps 638 mmHg 85%
    01:00 +20°C° 0.2 mm 1 mps 638 mmHg 86%
    02:00 +19°C° 0.1 mm 1 mps 638 mmHg 87%
    03:00 +19°C° 0.1 mm 1 mps 637 mmHg 87%
    04:00 +18°C° 0.1 mm 1 mps 637 mmHg 88%
    05:00 +19°C° 0 mm 1 mps 638 mmHg 86%
    06:00 +19°C° 0 mm 1 mps 638 mmHg 84%
    07:00 +20°C° 0 mm 1 mps 639 mmHg 82%
    08:00 +22°C° 0.2 mm 1 mps 640 mmHg 78%
    09:00 +23°C° 0.2 mm 1 mps 640 mmHg 75%
    10:00 +24°C° 0.2 mm 2 mps 641 mmHg 72%
    11:00 +25°C° 0.6 mm 2 mps 640 mmHg 72%
    12:00 +25°C° 0.6 mm 2 mps 639 mmHg 73%
    13:00 +25°C° 0.6 mm 2 mps 638 mmHg 73%
    14:00 +25°C° 0.5 mm 1 mps 638 mmHg 73%
    15:00 +25°C° 0.5 mm 1 mps 638 mmHg 72%
    16:00 +25°C° 0.5 mm 1 mps 637 mmHg 71%
    17:00 +23°C° 0.4 mm 1 mps 637 mmHg 76%
    18:00 +22°C° 0.4 mm 1 mps 637 mmHg 82%
    19:00 +20°C° 0.4 mm 1 mps 637 mmHg 87%
    20:00 +20°C° 0.1 mm 1 mps 638 mmHg 86%
    21:00 +20°C° 0.1 mm 1 mps 638 mmHg 85%
    22:00 +20°C° 0.1 mm 1 mps 638 mmHg 84%
    23:00 +20°C° 0.1 mm 1 mps 638 mmHg 83%

    Day after tomorrow, 25 September, Wednesday

    Time Temperature Precipitation Wind Pressure Humidity
    00:00 +20°C° 0.1 mm 1 mps 638 mmHg 83%
    01:00 +20°C° 0.1 mm 1 mps 638 mmHg 83%
    02:00 +20°C° 0.1 mm 1 mps 638 mmHg 83%
    03:00 +19°C° 0.1 mm 1 mps 638 mmHg 83%
    04:00 +17°C° 0.1 mm 0 mps 638 mmHg 84%
    05:00 +18°C° 0.1 mm 0 mps 638 mmHg 83%
    06:00 +18°C° 0.1 mm 0 mps 639 mmHg 82%
    07:00 +19°C° 0.1 mm 0 mps 639 mmHg 81%
    08:00 +22°C° 0.3 mm 1 mps 640 mmHg 77%
    09:00 +23°C° 0.3 mm 1 mps 640 mmHg 74%
    10:00 +25°C° 0.3 mm 1 mps 641 mmHg 71%
    11:00 +25°C° 1.1 mm 1 mps 640 mmHg 71%
    12:00 +25°C° 1.1 mm 1 mps 639 mmHg 71%
    13:00 +26°C° 1.1 mm 1 mps 638 mmHg 71%
    14:00 +25°C° 1.3 mm 1 mps 638 mmHg 72%
    15:00 +25°C° 1.3 mm 1 mps 637 mmHg 73%
    16:00 +25°C° 1.3 mm 1 mps 637 mmHg 75%
    17:00 +24°C° 1.8 mm 1 mps 637 mmHg 80%
    18:00 +22°C° 1.8 mm 1 mps 637 mmHg 86%
    19:00 +19°C° 1.8 mm 0 mps 637 mmHg 92%
    20:00 +18°C° 1.1 mm 0 mps 637 mmHg 92%
    21:00 +18°C° 1.1 mm 0 mps 638 mmHg 93%
    22:00 +18°C° 1.1 mm 0 mps 638 mmHg 93%
    23:00 +17°C° 0.1 mm 0 mps 638 mmHg 92%

    26 September, Thursday

    Time Temperature Precipitation Wind Pressure Humidity
    00:00 +19°C° 0.1 mm 1 mps 638 mmHg 92%
    01:00 +18°C° 0.1 mm 1 mps 637 mmHg 91%
    02:00 +18°C° 0 mm 1 mps 637 mmHg 90%
    03:00 +18°C° 0 mm 1 mps 637 mmHg 90%
    04:00 +18°C° 0 mm 1 mps 637 mmHg 89%
    05:00 +19°C° 0 mm 1 mps 638 mmHg 87%
    06:00 +19°C° 0 mm 1 mps 638 mmHg 85%
    07:00 +20°C° 0 mm 1 mps 639 mmHg 84%
    08:00 +22°C° 0.1 mm 1 mps 639 mmHg 77%
    09:00 +23°C° 0.1 mm 1 mps 640 mmHg 71%
    10:00 +25°C° 0.1 mm 1 mps 640 mmHg 65%
    11:00 +25°C° 1.1 mm 1 mps 639 mmHg 69%
    12:00 +25°C° 1.1 mm 1 mps 639 mmHg 73%
    13:00 +25°C° 1.1 mm 1 mps 638 mmHg 77%
    14:00 +25°C° 1.3 mm 1 mps 637 mmHg 78%
    15:00 +24°C° 1.3 mm 1 mps 637 mmHg 79%
    16:00 +24°C° 1.3 mm 1 mps 636 mmHg 80%
    17:00 +23°C° 0.8 mm 1 mps 636 mmHg 83%
    18:00 +22°C° 0.8 mm 1 mps 636 mmHg 85%
    19:00 +20°C° 0.8 mm 1 mps 636 mmHg 88%
    20:00 +20°C° 0.5 mm 1 mps 637 mmHg 88%
    21:00 +18°C° 0.5 mm 2 mps 637 mmHg 88%
    22:00 +18°C° 0.5 mm 2 mps 637 mmHg 89%
    23:00 +18°C° 0.3 mm 2 mps 637 mmHg 88%

    27 September, Friday

    Time Temperature Precipitation Wind Pressure Humidity
    00:00 +19°C° 0.3 mm 1 mps 637 mmHg 88%
    01:00 +18°C° 0.3 mm 1 mps 637 mmHg 87%
    02:00 +18°C° 0.1 mm 1 mps 637 mmHg 87%
    03:00 +18°C° 0.1 mm 1 mps 636 mmHg 87%
    04:00 +18°C° 0.1 mm 1 mps 636 mmHg 87%
    05:00 +18°C° 0.1 mm 1 mps 637 mmHg 85%
    06:00 +19°C° 0.1 mm 1 mps 638 mmHg 83%
    07:00 +20°C° 0.1 mm 1 mps 639 mmHg 81%
    08:00 +22°C° 0.2 mm 1 mps 639 mmHg 76%
    09:00 +24°C° 0.2 mm 1 mps 640 mmHg 72%
    10:00 +25°C° 0.2 mm 1 mps 640 mmHg 68%
    11:00 +25°C° 0.9 mm 1 mps 639 mmHg 71%
    12:00 +25°C° 0.9 mm 1 mps 638 mmHg 74%
    13:00 +25°C° 0.9 mm 2 mps 638 mmHg 77%
    14:00 +25°C° 1.2 mm 1 mps 637 mmHg 78%
    15:00 +24°C° 1.2 mm 1 mps 637 mmHg 79%
    16:00 +24°C° 1.2 mm 1 mps 636 mmHg 79%
    17:00 +23°C° 1 mm 1 mps 636 mmHg 84%
    18:00 +21°C° 1 mm 1 mps 636 mmHg 88%
    19:00 +20°C° 1 mm 1 mps 636 mmHg 92%
    20:00 +20°C° 0.5 mm 1 mps 637 mmHg 91%
    21:00 +19°C° 0.5 mm 1 mps 637 mmHg 90%
    22:00 +19°C° 0.5 mm 1 mps 637 mmHg 89%
    23:00 +18°C° 0.3 mm 1 mps 637 mmHg 89%

    28 September, Saturday

    Time Temperature Precipitation Wind Pressure Humidity
    00:00 +18°C° 0.3 mm 1 mps 637 mmHg 89%
    01:00 +18°C° 0.3 mm 1 mps 637 mmHg 89%
    02:00 +18°C° 0 mm 1 mps 637 mmHg 89%
    03:00 +18°C° 0 mm 1 mps 636 mmHg 89%
    04:00 +18°C° 0 mm 1 mps 636 mmHg 89%
    05:00 +18°C° 0 mm 1 mps 637 mmHg 87%
    06:00 +19°C° 0 mm 1 mps 638 mmHg 85%
    07:00 +20°C° 0 mm 1 mps 638 mmHg 83%
    08:00 +22°C° 0.1 mm 1 mps 639 mmHg 75%
    09:00 +24°C° 0.1 mm 1 mps 640 mmHg 68%
    10:00 +26°C° 0.1 mm 1 mps 640 mmHg 61%
    11:00 +26°C° 0.4 mm 1 mps 639 mmHg 63%
    12:00 +26°C° 0.4 mm 2 mps 638 mmHg 65%
    13:00 +26°C° 0.4 mm 2 mps 637 mmHg 67%
    14:00 +26°C° 1 mm 1 mps 637 mmHg 72%
    15:00 +25°C° 1 mm 1 mps 636 mmHg 77%
    16:00 +24°C° 1 mm 1 mps 636 mmHg 82%
    17:00 +23°C° 1.6 mm 1 mps 636 mmHg 85%
    18:00 +22°C° 1.6 mm 1 mps 636 mmHg 88%
    19:00 +18°C° 1.6 mm 0 mps 636 mmHg 92%
    20:00 +20°C° 0.9 mm 1 mps 636 mmHg 92%
    21:00 +20°C° 0.9 mm 1 mps 636 mmHg 92%
    22:00 +19°C° 0.9 mm 1 mps 637 mmHg 93%
    23:00 +19°C° 0.1 mm 1 mps 636 mmHg 93%
    Show more